Time,TemperatureF,DewpointF,PressureIn,WindDirection,WindDirectionDegrees,WindSpeedMPH,WindSpeedGustMPH,Humidity,HourlyPrecipIn,Conditions,Clouds,dailyrainin,SolarRadiationWatts/m^2,SoftwareType,DateUTC
2013-06-02 00:00:00,69.1,67.9,29.90,ENE,77,0.0,1.0,96,0.00,,---,0.00,0.00,VWS V14.00,2013-06-02 05:00:00,
2013-06-02 00:01:00,69.1,67.9,29.89,ENE,77,0.0,0.0,96,0.00,,---,0.00,0.00,VWS V14.00,2013-06-02 05:01:00,
2013-06-02 00:06:00,69.1,67.9,29.89,ENE,77,0.0,0.0,96,0.00,,---,0.00,0.00,VWS V14.00,2013-06-02 05:06:00,
2013-06-02 00:11:00,69.1,67.9,29.89,ENE,77,0.0,0.0,96,0.00,,---,0.00,0.00,VWS V14.00,2013-06-02 05:11:00,
2013-06-02 00:16:00,69.1,67.6,29.90,ENE,77,0.0,0.0,95,0.00,,---,0.00,0.00,VWS V14.00,2013-06-02 05:16:00,
2013-06-02 00:21:00,69.1,67.9,29.88,ENE,77,0.0,0.0,96,0.00,,---,0.00,0.00,VWS V14.00,2013-06-02 05:21:00,
2013-06-02 00:26:00,69.1,67.9,29.88,ENE,77,0.0,0.0,96,0.00,,---,0.00,0.00,VWS V14.00,2013-06-02 05:26:00,
2013-06-02 00:30:00,69.1,67.9,29.88,ENE,77,0.0,0.0,96,0.00,,---,0.00,0.00,VWS V14.00,2013-06-02 05:30:00,
2013-06-02 00:31:00,69.0,67.8,29.89,ENE,77,0.0,0.0,96,0.00,,---,0.00,0.00,VWS V14.00,2013-06-02 05:31:00,
2013-06-02 00:36:00,69.0,67.8,29.89,ENE,77,0.0,0.0,96,0.00,,---,0.00,0.00,VWS V14.00,2013-06-02 05:36:00,
2013-06-02 00:41:00,68.9,67.4,29.89,ENE,77,0.0,0.0,95,0.00,,---,0.00,0.00,VWS V14.00,2013-06-02 05:41:00,
2013-06-02 00:46:00,68.9,67.7,29.89,ENE,77,0.0,0.0,96,0.00,,---,0.00,0.00,VWS V14.00,2013-06-02 05:46:00,
2013-06-02 00:51:00,68.8,67.3,29.89,ENE,77,0.0,0.0,95,0.00,,---,0.00,0.00,VWS V14.00,2013-06-02 05:51:00,
2013-06-02 00:56:00,68.8,67.3,29.89,ENE,77,0.0,0.0,95,0.00,,---,0.00,0.00,VWS V14.00,2013-06-02 05:56:00,
2013-06-02 01:00:00,68.8,67.3,29.89,ENE,77,0.0,0.0,95,0.00,,---,0.00,0.00,VWS V14.00,2013-06-02 06:00:00,
2013-06-02 01:01:00,68.8,67.3,29.89,ENE,77,0.0,0.0,95,0.00,,---,0.00,0.00,VWS V14.00,2013-06-02 06:01:00,
2013-06-02 01:06:00,68.8,67.3,29.89,ENE,77,0.0,0.0,95,0.00,,---,0.00,0.00,VWS V14.00,2013-06-02 06:06:00,
2013-06-02 01:11:00,68.7,67.2,29.90,ENE,77,0.0,0.0,95,0.00,,---,0.00,0.00,VWS V14.00,2013-06-02 06:11:00,
2013-06-02 01:16:00,68.8,67.3,29.90,ENE,77,0.0,0.0,95,0.00,,---,0.00,0.00,VWS V14.00,2013-06-02 06:16:00,
2013-06-02 01:21:00,68.8,67.3,29.90,ENE,77,0.0,0.0,95,0.00,,---,0.00,0.00,VWS V14.00,2013-06-02 06:21:00,
2013-06-02 01:26:00,68.8,67.3,29.89,ENE,77,0.0,0.0,95,0.00,,---,0.00,0.00,VWS V14.00,2013-06-02 06:26:00,
2013-06-02 01:30:00,68.8,67.3,29.89,ENE,77,0.0,0.0,95,0.00,,---,0.00,0.00,VWS V14.00,2013-06-02 06:30:00,
2013-06-02 01:31:00,68.8,67.3,29.89,ENE,77,0.0,0.0,95,0.00,,---,0.00,0.00,VWS V14.00,2013-06-02 06:31:00,
2013-06-02 01:36:00,68.9,67.4,29.90,ENE,77,0.0,0.0,95,0.00,,---,0.00,0.00,VWS V14.00,2013-06-02 06:36:00,
2013-06-02 01:41:00,68.9,67.4,29.90,ENE,77,0.0,0.0,95,0.00,,---,0.00,0.00,VWS V14.00,2013-06-02 06:41:00,
2013-06-02 01:46:00,68.9,67.7,29.90,ENE,77,0.0,0.0,96,0.00,,---,0.00,0.00,VWS V14.00,2013-06-02 06:46:00,
2013-06-02 01:51:00,68.9,67.7,29.90,ENE,77,0.0,0.0,96,0.00,,---,0.00,0.00,VWS V14.00,2013-06-02 06:51:00,
2013-06-02 01:56:00,68.9,67.7,29.90,ENE,77,0.0,0.0,96,0.00,,---,0.00,0.00,VWS V14.00,2013-06-02 06:56:00,
2013-06-02 02:00:00,68.9,67.7,29.90,ENE,77,0.0,0.0,96,0.00,,---,0.00,0.00,VWS V14.00,2013-06-02 07:00:00,
2013-06-02 02:01:00,69.0,67.8,29.89,ENE,77,0.0,0.0,96,0.00,,---,0.00,0.00,VWS V14.00,2013-06-02 07:01:00,
2013-06-02 02:06:00,69.0,67.8,29.89,ENE,77,0.0,0.0,96,0.00,,---,0.00,0.00,VWS V14.00,2013-06-02 07:06:00,
2013-06-02 02:11:00,69.0,67.8,29.89,ENE,77,0.0,0.0,96,0.00,,---,0.00,0.00,VWS V14.00,2013-06-02 07:11:00,
2013-06-02 02:16:00,69.0,67.8,29.89,ENE,77,0.0,0.0,96,0.00,,---,0.00,0.00,VWS V14.00,2013-06-02 07:16:00,
2013-06-02 02:21:00,69.0,67.8,29.89,ENE,77,0.0,0.0,96,0.00,,---,0.00,0.00,VWS V14.00,2013-06-02 07:21:00,
2013-06-02 02:26:00,69.1,67.9,29.90,ENE,77,0.0,0.0,96,0.00,,---,0.00,0.00,VWS V14.00,2013-06-02 07:26:00,
2013-06-02 02:30:00,69.1,67.9,29.90,ENE,77,0.0,0.0,96,0.00,,---,0.00,0.00,VWS V14.00,2013-06-02 07:30:00,
2013-06-02 02:31:00,69.2,68.0,29.90,ENE,77,0.0,0.0,96,0.00,,---,0.00,0.00,VWS V14.00,2013-06-02 07:31:00,
2013-06-02 02:36:00,69.2,68.0,29.89,ENE,77,0.0,0.0,96,0.00,,---,0.00,0.00,VWS V14.00,2013-06-02 07:36:00,
2013-06-02 02:41:00,69.2,68.0,29.88,ENE,77,0.0,0.0,96,0.00,,---,0.00,0.00,VWS V14.00,2013-06-02 07:41:00,
2013-06-02 02:46:00,69.2,68.0,29.89,ENE,77,0.0,0.0,96,0.00,,---,0.00,0.00,VWS V14.00,2013-06-02 07:46:00,
2013-06-02 02:51:00,69.2,68.0,29.88,ENE,77,0.0,0.0,96,0.00,,---,0.00,0.00,VWS V14.00,2013-06-02 07:51:00,
2013-06-02 02:56:00,69.1,67.9,29.89,ENE,77,0.0,0.0,96,0.00,,---,0.00,0.00,VWS V14.00,2013-06-02 07:56:00,
2013-06-02 03:00:00,69.2,68.0,29.89,ENE,77,0.0,0.0,96,0.00,,---,0.00,0.00,VWS V14.00,2013-06-02 08:00:00,
2013-06-02 03:01:00,69.2,68.0,29.89,ENE,77,0.0,0.0,96,0.00,,---,0.00,0.00,VWS V14.00,2013-06-02 08:01:00,
2013-06-02 03:06:00,69.2,68.0,29.89,ENE,77,0.0,0.0,96,0.00,,---,0.00,0.00,VWS V14.00,2013-06-02 08:06:00,
2013-06-02 03:11:00,69.1,67.9,29.88,ENE,77,0.0,0.0,96,0.00,,---,0.00,0.00,VWS V14.00,2013-06-02 08:11:00,
2013-06-02 03:16:00,69.1,67.9,29.89,ENE,77,0.0,0.0,96,0.00,,---,0.00,0.00,VWS V14.00,2013-06-02 08:16:00,
2013-06-02 03:21:00,69.0,67.8,29.88,ENE,77,0.0,0.0,96,0.00,,---,0.00,0.00,VWS V14.00,2013-06-02 08:21:00,
2013-06-02 03:26:00,69.0,67.8,29.89,ENE,77,0.0,0.0,96,0.00,,---,0.00,0.00,VWS V14.00,2013-06-02 08:26:00,
2013-06-02 03:30:00,69.1,67.9,29.89,ENE,77,0.0,0.0,96,0.00,,---,0.00,0.00,VWS V14.00,2013-06-02 08:30:00,
2013-06-02 03:31:00,69.1,67.9,29.89,ENE,77,0.0,0.0,96,0.00,,---,0.00,0.00,VWS V14.00,2013-06-02 08:31:00,
2013-06-02 03:36:00,69.0,67.8,29.89,ENE,77,0.0,0.0,96,0.00,,---,0.00,0.00,VWS V14.00,2013-06-02 08:36:00,
2013-06-02 03:41:00,69.0,67.8,29.89,ENE,77,0.0,0.0,96,0.00,,---,0.00,0.00,VWS V14.00,2013-06-02 08:41:00,
2013-06-02 03:46:00,69.1,67.9,29.89,ENE,77,0.0,0.0,96,0.00,,---,0.00,0.00,VWS V14.00,2013-06-02 08:46:00,
2013-06-02 03:51:00,69.1,67.9,29.89,ENE,77,0.0,0.0,96,0.00,,---,0.00,0.00,VWS V14.00,2013-06-02 08:51:00,
2013-06-02 03:56:00,69.1,67.9,29.89,ENE,77,0.0,0.0,96,0.00,,---,0.00,0.00,VWS V14.00,2013-06-02 08:56:00,
2013-06-02 04:00:00,69.2,68.0,29.89,ENE,77,0.0,0.0,96,0.00,,---,0.00,0.00,VWS V14.00,2013-06-02 09:00:00,
2013-06-02 04:01:00,69.2,68.0,29.88,ENE,77,0.0,0.0,96,0.00,,---,0.00,0.00,VWS V14.00,2013-06-02 09:01:00,
2013-06-02 04:05:00,69.1,67.9,29.88,ENE,77,0.0,0.0,96,0.00,,---,0.00,0.00,VWS V14.00,2013-06-02 09:05:00,
2013-06-02 04:10:00,69.2,68.0,29.88,ENE,77,0.0,0.0,96,0.00,,---,0.00,0.00,VWS V14.00,2013-06-02 09:10:00,
2013-06-02 04:15:00,69.2,68.0,29.88,ENE,77,0.0,0.0,96,0.00,,---,0.00,0.00,VWS V14.00,2013-06-02 09:15:00,
2013-06-02 04:20:00,69.3,68.1,29.87,ENE,77,0.0,0.0,96,0.00,,---,0.00,0.00,VWS V14.00,2013-06-02 09:20:00,
2013-06-02 04:25:00,69.3,68.1,29.87,ENE,77,0.0,0.0,96,0.00,,---,0.00,0.00,VWS V14.00,2013-06-02 09:25:00,
2013-06-02 04:30:00,69.3,68.1,29.87,ENE,77,0.0,0.0,96,0.00,,---,0.00,0.00,VWS V14.00,2013-06-02 09:30:00,
2013-06-02 04:35:00,69.3,68.1,29.87,ENE,77,0.0,0.0,96,0.00,,---,0.00,0.00,VWS V14.00,2013-06-02 09:35:00,
2013-06-02 04:40:00,69.4,68.2,29.87,ENE,77,0.0,0.0,96,0.00,,---,0.00,0.00,VWS V14.00,2013-06-02 09:40:00,
2013-06-02 04:45:00,69.3,68.1,29.87,ENE,77,0.0,0.0,96,0.00,,---,0.00,0.00,VWS V14.00,2013-06-02 09:45:00,
2013-06-02 04:50:00,69.3,68.1,29.87,ENE,77,0.0,0.0,96,0.00,,---,0.00,0.00,VWS V14.00,2013-06-02 09:50:00,
2013-06-02 04:55:00,69.3,68.1,29.87,ENE,77,0.0,0.0,96,0.00,,---,0.00,0.00,VWS V14.00,2013-06-02 09:55:00,
2013-06-02 05:00:00,69.3,68.1,29.87,ENE,77,0.0,0.0,96,0.00,,---,0.00,0.00,VWS V14.00,2013-06-02 10:00:00,
2013-06-02 05:05:00,69.4,68.2,29.87,ENE,77,0.0,0.0,96,0.00,,---,0.00,0.00,VWS V14.00,2013-06-02 10:05:00,
2013-06-02 05:10:00,69.4,68.2,29.88,ENE,77,0.0,0.0,96,0.00,,---,0.00,0.00,VWS V14.00,2013-06-02 10:10:00,
2013-06-02 05:15:00,69.3,68.1,29.89,WNW,297,0.0,5.0,96,0.00,,---,0.00,0.00,VWS V14.00,2013-06-02 10:15:00,
2013-06-02 05:20:00,69.3,68.1,29.89,NW,310,0.0,5.0,96,0.00,,---,0.00,0.00,VWS V14.00,2013-06-02 10:20:00,
2013-06-02 05:25:00,69.3,68.1,29.89,NW,325,0.0,5.0,96,0.00,,---,0.00,0.00,VWS V14.00,2013-06-02 10:25:00,
2013-06-02 05:30:00,69.3,68.1,29.88,NW,325,0.0,0.0,96,0.00,,---,0.00,0.00,VWS V14.00,2013-06-02 10:30:00,
2013-06-02 05:35:00,69.3,68.1,29.88,NW,325,0.0,0.0,96,0.00,,---,0.00,0.00,VWS V14.00,2013-06-02 10:35:00,
2013-06-02 05:40:00,69.3,68.1,29.88,NW,311,0.0,1.0,96,0.00,,---,0.00,0.00,VWS V14.00,2013-06-02 10:40:00,
2013-06-02 05:45:00,69.1,67.9,29.88,NE,51,0.0,2.0,96,0.00,,---,0.00,0.00,VWS V14.00,2013-06-02 10:45:00,
2013-06-02 05:50:00,69.1,67.9,29.88,East,80,0.0,2.0,96,0.00,,---,0.00,0.00,VWS V14.00,2013-06-02 10:50:00,
2013-06-02 05:55:00,69.0,67.8,29.89,North,360,0.0,2.0,96,0.00,,---,0.00,0.00,VWS V14.00,2013-06-02 10:55:00,
2013-06-02 06:00:00,69.0,67.8,29.89,North,360,0.0,0.0,96,0.00,,---,0.00,7.00,VWS V14.00,2013-06-02 11:00:00,
2013-06-02 06:05:00,69.0,67.8,29.89,North,360,0.0,0.0,96,0.00,,---,0.00,9.00,VWS V14.00,2013-06-02 11:05:00,
2013-06-02 06:10:00,69.0,67.8,29.89,North,360,0.0,0.0,96,0.00,,---,0.00,16.00,VWS V14.00,2013-06-02 11:10:00,
2013-06-02 06:15:00,69.0,67.8,29.89,North,360,0.0,0.0,96,0.00,,---,0.00,18.00,VWS V14.00,2013-06-02 11:15:00,
2013-06-02 06:20:00,69.0,67.8,29.90,NE,55,0.0,0.0,96,0.00,,---,0.00,16.00,VWS V14.00,2013-06-02 11:20:00,
2013-06-02 06:25:00,69.0,67.8,29.90,NNW,346,0.0,0.0,96,0.00,,---,0.00,18.00,VWS V14.00,2013-06-02 11:25:00,
2013-06-02 06:30:00,69.0,67.8,29.90,NNW,346,0.0,0.0,96,0.00,,---,0.00,23.00,VWS V14.00,2013-06-02 11:30:00,
2013-06-02 06:35:00,69.0,67.8,29.90,NW,318,0.0,0.0,96,0.00,,---,0.00,26.00,VWS V14.00,2013-06-02 11:35:00,
2013-06-02 06:40:00,69.0,67.8,29.90,NW,321,0.0,0.0,96,0.00,,---,0.00,21.00,VWS V14.00,2013-06-02 11:40:00,
2013-06-02 06:45:00,69.0,67.8,29.90,NW,320,0.0,1.0,96,0.00,,---,0.00,19.00,VWS V14.00,2013-06-02 11:45:00,
2013-06-02 06:50:00,68.9,67.7,29.90,NNW,344,0.0,1.0,96,0.00,,---,0.00,18.00,VWS V14.00,2013-06-02 11:50:00,
2013-06-02 06:55:00,68.8,67.6,29.90,West,275,0.0,1.0,96,0.00,,---,0.00,18.00,VWS V14.00,2013-06-02 11:55:00,
2013-06-02 07:00:00,68.7,67.5,29.90,West,281,0.0,0.0,96,0.00,,---,0.00,18.00,VWS V14.00,2013-06-02 12:00:00,
2013-06-02 07:05:00,68.7,67.5,29.90,West,281,0.0,1.0,96,0.00,,---,0.00,18.00,VWS V14.00,2013-06-02 12:05:00,
2013-06-02 07:10:00,68.6,67.4,29.90,West,281,0.0,1.0,96,0.00,,---,0.00,23.00,VWS V14.00,2013-06-02 12:10:00,
2013-06-02 07:15:00,68.6,67.1,29.91,NW,310,0.0,1.0,95,0.00,,---,0.00,28.00,VWS V14.00,2013-06-02 12:15:00,
2013-06-02 07:20:00,68.5,67.0,29.90,SW,230,0.0,1.0,95,0.00,,---,0.00,32.00,VWS V14.00,2013-06-02 12:20:00,
2013-06-02 07:25:00,68.5,67.0,29.90,SW,230,0.0,1.0,95,0.00,,---,0.00,30.00,VWS V14.00,2013-06-02 12:25:00,
2013-06-02 07:30:00,68.5,67.3,29.90,SW,230,0.0,0.0,96,0.00,,---,0.00,37.00,VWS V14.00,2013-06-02 12:30:00,
2013-06-02 07:35:00,68.5,67.3,29.90,SW,230,0.0,0.0,96,0.00,,---,0.00,40.00,VWS V14.00,2013-06-02 12:35:00,
2013-06-02 07:40:00,68.6,67.1,29.90,SW,230,0.0,0.0,95,0.00,,---,0.00,42.00,VWS V14.00,2013-06-02 12:40:00,
2013-06-02 07:45:00,68.6,67.1,29.90,SW,230,0.0,0.0,95,0.00,,---,0.00,44.00,VWS V14.00,2013-06-02 12:45:00,
2013-06-02 07:50:00,68.6,67.1,29.90,SW,230,0.0,0.0,95,0.00,,---,0.00,35.00,VWS V14.00,2013-06-02 12:50:00,
2013-06-02 07:55:00,68.6,67.1,29.91,SW,230,0.0,0.0,95,0.00,,---,0.00,32.00,VWS V14.00,2013-06-02 12:55:00,
2013-06-02 08:00:00,68.7,67.2,29.90,SW,230,0.0,0.0,95,0.00,,---,0.00,37.00,VWS V14.00,2013-06-02 13:00:00,
2013-06-02 08:05:00,68.7,67.2,29.90,SW,230,0.0,0.0,95,0.00,,---,0.00,35.00,VWS V14.00,2013-06-02 13:05:00,
2013-06-02 08:10:00,68.7,67.2,29.90,SW,230,0.0,0.0,95,0.00,,---,0.00,37.00,VWS V14.00,2013-06-02 13:10:00,
2013-06-02 08:15:00,68.7,67.2,29.90,SW,230,0.0,0.0,95,0.00,,---,0.00,37.00,VWS V14.00,2013-06-02 13:15:00,
2013-06-02 08:20:00,68.7,67.2,29.90,SW,230,0.0,0.0,95,0.00,,---,0.00,37.00,VWS V14.00,2013-06-02 13:20:00,
2013-06-02 08:25:00,68.8,67.3,29.90,SW,230,0.0,0.0,95,0.00,,---,0.00,46.00,VWS V14.00,2013-06-02 13:25:00,
2013-06-02 08:30:00,68.9,67.4,29.90,SW,230,0.0,0.0,95,0.00,,---,0.00,60.00,VWS V14.00,2013-06-02 13:30:00,
2013-06-02 08:35:00,69.0,67.8,29.90,SW,230,0.0,0.0,96,0.00,,---,0.00,84.00,VWS V14.00,2013-06-02 13:35:00,
2013-06-02 08:40:00,69.1,67.6,29.90,SW,230,0.0,0.0,95,0.00,,---,0.00,132.00,VWS V14.00,2013-06-02 13:40:00,
2013-06-02 08:45:00,69.1,67.6,29.90,SW,230,0.0,0.0,95,0.00,,---,0.00,137.00,VWS V14.00,2013-06-02 13:45:00,
2013-06-02 08:50:00,69.2,67.7,29.90,SW,230,0.0,0.0,95,0.00,,---,0.00,88.00,VWS V14.00,2013-06-02 13:50:00,
2013-06-02 08:55:00,69.3,67.8,29.90,SE,124,0.0,0.0,95,0.00,,---,0.00,118.00,VWS V14.00,2013-06-02 13:55:00,
2013-06-02 09:00:00,69.3,67.8,29.91,SE,124,0.0,0.0,95,0.00,,---,0.00,102.00,VWS V14.00,2013-06-02 14:00:00,
2013-06-02 09:05:00,69.4,67.9,29.91,SE,124,0.0,0.0,95,0.00,,---,0.00,137.00,VWS V14.00,2013-06-02 14:05:00,
2013-06-02 09:10:00,69.5,68.0,29.91,SE,124,0.0,0.0,95,0.00,,---,0.00,118.00,VWS V14.00,2013-06-02 14:10:00,
2013-06-02 09:15:00,69.7,68.2,29.91,SE,124,0.0,0.0,95,0.00,,---,0.00,109.00,VWS V14.00,2013-06-02 14:15:00,
2013-06-02 09:20:00,69.6,68.1,29.91,SE,124,0.0,0.0,95,0.00,,---,0.00,104.00,VWS V14.00,2013-06-02 14:20:00,
2013-06-02 09:25:00,69.7,68.2,29.91,SE,124,0.0,0.0,95,0.00,,---,0.00,107.00,VWS V14.00,2013-06-02 14:25:00,
2013-06-02 09:30:00,69.7,68.2,29.91,SE,124,0.0,0.0,95,0.00,,---,0.00,144.00,VWS V14.00,2013-06-02 14:30:00,
2013-06-02 09:35:00,69.8,68.3,29.91,SW,219,1.0,2.0,95,0.00,,---,0.00,183.00,VWS V14.00,2013-06-02 14:35:00,
2013-06-02 09:40:00,70.0,68.5,29.91,WSW,244,0.0,2.0,95,0.00,,---,0.00,183.00,VWS V14.00,2013-06-02 14:40:00,
2013-06-02 09:45:00,70.0,68.5,29.91,West,269,0.0,2.0,95,0.00,,---,0.00,160.00,VWS V14.00,2013-06-02 14:45:00,
2013-06-02 09:50:00,70.2,68.7,29.91,West,269,0.0,2.0,95,0.00,,---,0.00,204.00,VWS V14.00,2013-06-02 14:50:00,
2013-06-02 09:55:00,70.2,68.7,29.91,West,269,0.0,2.0,95,0.00,,---,0.00,183.00,VWS V14.00,2013-06-02 14:55:00,
2013-06-02 10:00:00,70.3,68.8,29.91,West,269,0.0,0.0,95,0.00,,---,0.00,214.00,VWS V14.00,2013-06-02 15:00:00,
2013-06-02 10:05:00,70.5,69.0,29.91,West,269,0.0,0.0,95,0.00,,---,0.00,214.00,VWS V14.00,2013-06-02 15:05:00,
2013-06-02 10:10:00,70.7,69.2,29.91,West,269,0.0,0.0,95,0.00,,---,0.00,262.00,VWS V14.00,2013-06-02 15:10:00,
2013-06-02 10:15:00,70.9,69.4,29.91,West,270,0.0,0.0,95,0.00,,---,0.00,308.00,VWS V14.00,2013-06-02 15:15:00,
2013-06-02 10:20:00,71.0,69.5,29.91,West,270,0.0,0.0,95,0.00,,---,0.00,281.00,VWS V14.00,2013-06-02 15:20:00,
2013-06-02 10:25:00,70.9,69.1,29.91,West,270,0.0,0.0,94,0.00,,---,0.00,264.00,VWS V14.00,2013-06-02 15:25:00,
2013-06-02 10:30:00,71.2,69.7,29.92,West,270,0.0,1.0,95,0.00,,---,0.00,253.00,VWS V14.00,2013-06-02 15:30:00,
2013-06-02 10:35:00,71.4,69.6,29.92,West,270,0.0,1.0,94,0.00,,---,0.00,237.00,VWS V14.00,2013-06-02 15:35:00,
2013-06-02 10:40:00,71.7,69.9,29.92,WNW,293,0.0,1.0,94,0.00,,---,0.00,329.00,VWS V14.00,2013-06-02 15:40:00,
2013-06-02 10:45:00,71.8,69.7,29.92,NNW,344,0.0,1.0,93,0.00,,---,0.00,334.00,VWS V14.00,2013-06-02 15:45:00,
2013-06-02 10:50:00,71.9,69.8,29.92,NNW,344,0.0,1.0,93,0.00,,---,0.00,281.00,VWS V14.00,2013-06-02 15:50:00,
2013-06-02 10:55:00,72.3,70.2,29.92,NNW,344,0.0,1.0,93,0.00,,---,0.00,334.00,VWS V14.00,2013-06-02 15:55:00,
2013-06-02 11:00:00,72.6,70.2,29.92,North,355,0.0,0.0,92,0.00,,---,0.00,362.00,VWS V14.00,2013-06-02 16:00:00,
2013-06-02 11:05:00,72.6,69.5,29.92,NNW,346,0.0,0.0,90,0.00,,---,0.00,223.00,VWS V14.00,2013-06-02 16:05:00,
2013-06-02 11:10:00,72.6,69.5,29.92,NNE,22,0.0,4.0,90,0.00,,---,0.00,443.00,VWS V14.00,2013-06-02 16:10:00,
2013-06-02 11:15:00,73.0,70.5,29.92,NW,323,0.0,4.0,92,0.00,,---,0.00,485.00,VWS V14.00,2013-06-02 16:15:00,
2013-06-02 11:20:00,73.4,70.3,29.92,NNE,20,0.0,4.0,90,0.00,,---,0.00,840.00,VWS V14.00,2013-06-02 16:20:00,
2013-06-02 11:25:00,73.7,70.3,29.92,West,281,0.0,4.0,89,0.00,,---,0.00,404.00,VWS V14.00,2013-06-02 16:25:00,
2013-06-02 11:30:00,73.8,69.7,29.92,NNW,346,0.0,4.0,87,0.00,,---,0.00,306.00,VWS V14.00,2013-06-02 16:30:00,
2013-06-02 11:35:00,73.8,69.7,29.92,NNW,331,0.0,4.0,87,0.00,,---,0.00,884.00,VWS V14.00,2013-06-02 16:35:00,
2013-06-02 11:40:00,74.2,70.4,29.92,NE,49,0.0,4.0,88,0.00,,---,0.00,568.00,VWS V14.00,2013-06-02 16:40:00,
2013-06-02 11:45:00,74.7,70.2,29.91,East,92,0.0,4.0,86,0.00,,---,0.00,390.00,VWS V14.00,2013-06-02 16:45:00,
2013-06-02 11:50:00,75.0,70.2,29.91,WNW,289,0.0,5.0,85,0.00,,---,0.00,366.00,VWS V14.00,2013-06-02 16:50:00,
2013-06-02 11:55:00,75.2,70.0,29.92,WNW,288,0.0,5.0,84,0.00,,---,0.00,638.00,VWS V14.00,2013-06-02 16:55:00,
2013-06-02 12:00:00,75.4,70.2,29.92,NNE,15,1.0,3.0,84,0.00,,---,0.00,223.00,VWS V14.00,2013-06-02 17:00:00,
2013-06-02 12:05:00,75.4,69.9,29.92,North,360,0.0,3.0,83,0.00,,---,0.00,455.00,VWS V14.00,2013-06-02 17:05:00,
2013-06-02 12:10:00,75.4,69.9,29.92,North,5,0.0,3.0,83,0.00,,---,0.00,568.00,VWS V14.00,2013-06-02 17:10:00,
2013-06-02 12:15:00,75.7,70.2,29.92,WNW,299,0.0,3.0,83,0.00,,---,0.00,355.00,VWS V14.00,2013-06-02 17:15:00,
2013-06-02 12:20:00,75.9,70.0,29.92,NNW,329,0.0,3.0,82,0.00,,---,0.00,272.00,VWS V14.00,2013-06-02 17:20:00,
2013-06-02 12:25:00,76.0,69.8,29.92,West,281,0.0,3.0,81,0.00,,---,0.00,357.00,VWS V14.00,2013-06-02 17:25:00,
2013-06-02 12:30:00,75.9,70.0,29.92,NNE,29,0.0,1.0,82,0.00,,---,0.00,582.00,VWS V14.00,2013-06-02 17:30:00,
2013-06-02 12:35:00,76.3,70.8,29.92,WSW,245,0.0,1.0,83,0.00,,---,0.00,415.00,VWS V14.00,2013-06-02 17:35:00,
2013-06-02 12:40:00,76.6,70.3,29.92,NW,321,0.0,1.0,81,0.00,,---,0.00,438.00,VWS V14.00,2013-06-02 17:40:00,
2013-06-02 12:45:00,76.7,69.3,29.92,NNW,346,0.0,1.0,78,0.00,,---,0.00,580.00,VWS V14.00,2013-06-02 17:45:00,
2013-06-02 12:50:00,76.9,69.9,29.91,West,259,0.0,4.0,79,0.00,,---,0.00,1083.00,VWS V14.00,2013-06-02 17:50:00,
2013-06-02 12:55:00,77.3,69.9,29.91,NW,311,0.0,4.0,78,0.00,,---,0.00,1023.00,VWS V14.00,2013-06-02 17:55:00,
2013-06-02 13:00:00,77.5,69.7,29.91,WNW,294,0.0,4.0,77,0.00,,---,0.00,1000.00,VWS V14.00,2013-06-02 18:00:00,
2013-06-02 13:05:00,77.7,68.4,29.91,NW,309,0.0,4.0,73,0.00,,---,0.00,1144.00,VWS V14.00,2013-06-02 18:05:00,
2013-06-02 13:10:00,77.9,68.9,29.91,NW,311,0.0,6.0,74,0.00,,---,0.00,520.00,VWS V14.00,2013-06-02 18:10:00,
2013-06-02 13:15:00,78.0,69.1,29.91,NNE,25,0.0,6.0,74,0.00,,---,0.00,984.00,VWS V14.00,2013-06-02 18:15:00,
2013-06-02 13:20:00,78.1,69.5,29.91,NNW,342,0.0,6.0,75,0.00,,---,0.00,761.00,VWS V14.00,2013-06-02 18:20:00,
2013-06-02 13:25:00,78.4,70.6,29.91,NNW,344,0.0,6.0,77,0.00,,---,0.00,983.00,VWS V14.00,2013-06-02 18:25:00,
2013-06-02 13:30:00,78.7,69.3,29.91,NNE,17,0.0,5.0,73,0.00,,---,0.00,821.00,VWS V14.00,2013-06-02 18:30:00,
2013-06-02 13:35:00,78.9,69.1,29.91,WNW,302,0.0,5.0,72,0.00,,---,0.00,895.00,VWS V14.00,2013-06-02 18:35:00,
2013-06-02 13:40:00,79.1,68.9,29.91,NNE,20,0.0,5.0,71,0.00,,---,0.00,895.00,VWS V14.00,2013-06-02 18:40:00,
2013-06-02 13:45:00,79.4,69.2,29.90,WSW,240,3.0,5.0,71,0.00,,---,0.00,1053.00,VWS V14.00,2013-06-02 18:45:00,
2013-06-02 13:50:00,79.8,70.0,29.90,North,5,0.0,5.0,72,0.00,,---,0.00,1136.00,VWS V14.00,2013-06-02 18:50:00,
2013-06-02 13:55:00,80.0,68.9,29.91,West,259,0.0,5.0,69,0.00,,---,0.00,497.00,VWS V14.00,2013-06-02 18:55:00,
2013-06-02 14:00:00,80.2,68.7,29.90,North,355,0.0,6.0,68,0.00,,---,0.00,378.00,VWS V14.00,2013-06-02 19:00:00,
2013-06-02 14:05:00,80.0,68.5,29.91,NNE,26,0.0,6.0,68,0.00,,---,0.00,352.00,VWS V14.00,2013-06-02 19:05:00,
2013-06-02 14:10:00,79.5,69.3,29.91,WNW,296,0.0,6.0,71,0.00,,---,0.00,346.00,VWS V14.00,2013-06-02 19:10:00,
2013-06-02 14:15:00,79.5,69.3,29.91,NNE,17,0.0,6.0,71,0.00,,---,0.00,1102.00,VWS V14.00,2013-06-02 19:15:00,
2013-06-02 14:20:00,79.6,68.1,29.91,NNE,30,2.0,6.0,68,0.00,,---,0.00,568.00,VWS V14.00,2013-06-02 19:20:00,
2013-06-02 14:25:00,79.5,67.2,29.90,North,9,0.0,6.0,66,0.00,,---,0.00,432.00,VWS V14.00,2013-06-02 19:25:00,
2013-06-02 14:30:00,79.6,69.4,29.90,North,5,0.0,6.0,71,0.00,,---,0.00,476.00,VWS V14.00,2013-06-02 19:30:00,
2013-06-02 14:34:00,79.9,68.8,29.91,North,355,2.0,6.0,69,0.00,,---,0.00,485.00,VWS V14.00,2013-06-02 19:34:00,
2013-06-02 14:39:00,80.2,69.1,29.90,WNW,286,0.0,11.0,69,0.00,,---,0.00,1092.00,VWS V14.00,2013-06-02 19:39:00,
2013-06-02 14:44:00,80.5,69.4,29.90,NNW,333,3.0,11.0,69,0.00,,---,0.00,366.00,VWS V14.00,2013-06-02 19:44:00,
2013-06-02 14:49:00,80.3,69.6,29.90,NNE,24,2.0,11.0,70,0.00,,---,0.00,279.00,VWS V14.00,2013-06-02 19:49:00,
2013-06-02 14:54:00,79.7,68.2,29.90,NNE,30,0.0,11.0,68,0.00,,---,0.00,341.00,VWS V14.00,2013-06-02 19:54:00,
2013-06-02 14:59:00,79.1,68.1,29.90,North,360,0.0,4.0,69,0.00,,---,0.00,527.00,VWS V14.00,2013-06-02 19:59:00,
2013-06-02 15:00:00,79.4,67.9,29.90,NNE,22,0.0,11.0,68,0.00,,---,0.00,388.00,VWS V14.00,2013-06-02 20:00:00,
2013-06-02 15:04:00,79.1,68.5,29.90,NNW,328,1.0,4.0,70,0.00,,---,0.00,371.00,VWS V14.00,2013-06-02 20:04:00,
2013-06-02 15:09:00,79.1,67.6,29.90,NW,304,0.0,4.0,68,0.00,,---,0.00,788.00,VWS V14.00,2013-06-02 20:09:00,
2013-06-02 15:14:00,79.2,68.2,29.90,NW,323,0.0,6.0,69,0.00,,---,0.00,800.00,VWS V14.00,2013-06-02 20:14:00,
2013-06-02 15:19:00,79.2,68.6,29.90,NNW,331,0.0,7.0,70,0.00,,---,0.00,809.00,VWS V14.00,2013-06-02 20:19:00,
2013-06-02 15:24:00,79.4,67.5,29.89,NNW,331,0.0,7.0,67,0.00,,---,0.00,828.00,VWS V14.00,2013-06-02 20:24:00,
2013-06-02 15:29:00,79.6,68.5,29.89,NE,34,1.0,4.0,69,0.00,,---,0.00,624.00,VWS V14.00,2013-06-02 20:29:00,
2013-06-02 15:30:00,79.4,67.9,29.89,NE,38,0.0,7.0,68,0.00,,---,0.00,817.00,VWS V14.00,2013-06-02 20:30:00,
2013-06-02 15:34:00,79.6,67.7,29.89,NW,319,0.0,9.0,67,0.00,,---,0.00,492.00,VWS V14.00,2013-06-02 20:34:00,
2013-06-02 15:39:00,79.6,67.7,29.90,NW,323,2.0,9.0,67,0.00,,---,0.00,701.00,VWS V14.00,2013-06-02 20:39:00,
2013-06-02 15:44:00,79.6,67.7,29.89,North,5,0.0,9.0,67,0.00,,---,0.00,330.00,VWS V14.00,2013-06-02 20:44:00,
2013-06-02 15:49:00,79.4,67.5,29.90,NNW,340,0.0,9.0,67,0.00,,---,0.00,360.00,VWS V14.00,2013-06-02 20:49:00,
2013-06-02 15:54:00,79.1,67.2,29.89,ENE,57,0.0,9.0,67,0.00,,---,0.00,531.00,VWS V14.00,2013-06-02 20:54:00,
2013-06-02 15:59:00,79.0,68.0,29.89,NW,319,0.0,3.0,69,0.00,,---,0.00,559.00,VWS V14.00,2013-06-02 20:59:00,
2013-06-02 16:00:00,79.0,67.1,29.89,NNW,338,0.0,9.0,67,0.00,,---,0.00,497.00,VWS V14.00,2013-06-02 21:00:00,
2013-06-02 16:04:00,78.8,67.4,29.89,NNW,327,0.0,3.0,68,0.00,,---,0.00,636.00,VWS V14.00,2013-06-02 21:04:00,
2013-06-02 16:09:00,78.8,67.8,29.89,NW,324,0.0,3.0,69,0.00,,---,0.00,413.00,VWS V14.00,2013-06-02 21:09:00,
2013-06-02 16:14:00,78.7,67.3,29.89,NW,321,3.0,3.0,68,0.00,,---,0.00,230.00,VWS V14.00,2013-06-02 21:14:00,
2013-06-02 16:19:00,78.4,67.4,29.89,NE,44,0.0,4.0,69,0.00,,---,0.00,299.00,VWS V14.00,2013-06-02 21:19:00,
2013-06-02 16:24:00,78.2,67.2,29.89,NNW,346,0.0,4.0,69,0.00,,---,0.00,271.00,VWS V14.00,2013-06-02 21:24:00,
2013-06-02 16:29:00,77.9,67.3,29.89,NNE,26,0.0,0.0,70,0.00,,---,0.00,272.00,VWS V14.00,2013-06-02 21:29:00,
2013-06-02 16:30:00,78.1,67.1,29.89,North,360,0.0,5.0,69,0.00,,---,0.00,250.00,VWS V14.00,2013-06-02 21:30:00,
2013-06-02 16:34:00,77.7,67.6,29.88,NNW,333,0.0,2.0,71,0.00,,---,0.00,387.00,VWS V14.00,2013-06-02 21:34:00,
2013-06-02 16:39:00,77.7,67.6,29.88,NNE,22,0.0,4.0,71,0.00,,---,0.00,339.00,VWS V14.00,2013-06-02 21:39:00,
2013-06-02 16:44:00,77.8,68.1,29.88,NNW,347,0.0,4.0,72,0.00,,---,0.00,381.00,VWS V14.00,2013-06-02 21:44:00,
2013-06-02 16:49:00,77.7,67.1,29.88,NE,53,4.0,4.0,70,0.00,,---,0.00,308.00,VWS V14.00,2013-06-02 21:49:00,
2013-06-02 16:54:00,77.4,66.9,29.88,NW,307,0.0,5.0,70,0.00,,---,0.00,288.00,VWS V14.00,2013-06-02 21:54:00,
2013-06-02 16:59:00,77.4,67.3,29.88,NW,323,0.0,1.0,71,0.00,,---,0.00,744.00,VWS V14.00,2013-06-02 21:59:00,
2013-06-02 17:00:00,77.3,66.8,29.88,NW,321,0.0,5.0,70,0.00,,---,0.00,309.00,VWS V14.00,2013-06-02 22:00:00,
2013-06-02 17:04:00,77.7,67.1,29.88,NW,325,0.0,5.0,70,0.00,,---,0.00,366.00,VWS V14.00,2013-06-02 22:04:00,
2013-06-02 17:09:00,77.8,66.4,29.88,NNE,29,0.0,5.0,68,0.00,,---,0.00,262.00,VWS V14.00,2013-06-02 22:09:00,
2013-06-02 17:14:00,77.7,66.7,29.88,NNW,329,0.0,5.0,69,0.00,,---,0.00,183.00,VWS V14.00,2013-06-02 22:14:00,
2013-06-02 17:19:00,77.5,67.4,29.87,North,355,0.0,5.0,71,0.00,,---,0.00,169.00,VWS V14.00,2013-06-02 22:19:00,
2013-06-02 17:24:00,77.2,66.7,29.87,NNE,13,0.0,5.0,70,0.00,,---,0.00,302.00,VWS V14.00,2013-06-02 22:24:00,
2013-06-02 17:29:00,77.1,66.6,29.88,NW,326,0.0,0.0,70,0.00,,---,0.00,274.00,VWS V14.00,2013-06-02 22:29:00,
2013-06-02 17:30:00,77.2,66.7,29.87,NNE,30,0.0,5.0,70,0.00,,---,0.00,260.00,VWS V14.00,2013-06-02 22:30:00,
2013-06-02 17:34:00,77.1,66.6,29.87,NNW,330,0.0,7.0,70,0.00,,---,0.00,603.00,VWS V14.00,2013-06-02 22:34:00,
2013-06-02 17:39:00,77.2,66.7,29.87,NNE,19,0.0,7.0,70,0.00,,---,0.00,276.00,VWS V14.00,2013-06-02 22:39:00,
2013-06-02 17:44:00,77.5,67.4,29.87,NW,325,0.0,7.0,71,0.00,,---,0.00,417.00,VWS V14.00,2013-06-02 22:44:00,
2013-06-02 17:49:00,77.8,67.2,29.88,NNE,18,0.0,7.0,70,0.00,,---,0.00,132.00,VWS V14.00,2013-06-02 22:49:00,
2013-06-02 17:54:00,77.5,66.5,29.88,NNE,15,0.0,7.0,69,0.00,,---,0.00,142.00,VWS V14.00,2013-06-02 22:54:00,
2013-06-02 17:59:00,77.2,66.2,29.88,North,360,0.0,2.0,69,0.00,,---,0.00,311.00,VWS V14.00,2013-06-02 22:59:00,
2013-06-02 18:00:00,77.3,65.9,29.88,NNE,19,0.0,7.0,68,0.00,,---,0.00,441.00,VWS V14.00,2013-06-02 23:00:00,
2013-06-02 18:04:00,77.3,66.8,29.88,NNE,21,0.0,4.0,70,0.00,,---,0.00,408.00,VWS V14.00,2013-06-02 23:04:00,
2013-06-02 18:09:00,77.4,66.4,29.88,NNE,21,0.0,4.0,69,0.00,,---,0.00,316.00,VWS V14.00,2013-06-02 23:09:00,
2013-06-02 18:14:00,77.6,67.1,29.88,WNW,301,0.0,4.0,70,0.00,,---,0.00,171.00,VWS V14.00,2013-06-02 23:14:00,
2013-06-02 18:19:00,77.5,65.7,29.88,NNE,26,0.0,4.0,67,0.00,,---,0.00,248.00,VWS V14.00,2013-06-02 23:19:00,
2013-06-02 18:24:00,77.2,66.2,29.88,NNW,348,0.0,4.0,69,0.00,,---,0.00,348.00,VWS V14.00,2013-06-02 23:24:00,
2013-06-02 18:29:00,77.3,66.3,29.88,NW,317,1.0,4.0,69,0.00,,---,0.00,338.00,VWS V14.00,2013-06-02 23:29:00,
2013-06-02 18:30:00,77.2,66.2,29.88,NNW,330,0.0,4.0,69,0.00,,---,0.00,355.00,VWS V14.00,2013-06-02 23:30:00,
2013-06-02 18:34:00,77.4,66.0,29.88,North,355,0.0,4.0,68,0.00,,---,0.00,329.00,VWS V14.00,2013-06-02 23:34:00,
2013-06-02 18:39:00,77.7,66.7,29.88,NNW,342,0.0,4.0,69,0.00,,---,0.00,308.00,VWS V14.00,2013-06-02 23:39:00,
2013-06-02 18:44:00,78.0,67.0,29.88,NNW,348,0.0,4.0,69,0.00,,---,0.00,332.00,VWS V14.00,2013-06-02 23:44:00,
2013-06-02 18:49:00,78.0,65.3,29.88,North,355,0.0,6.0,65,0.00,,---,0.00,269.00,VWS V14.00,2013-06-02 23:49:00,
2013-06-02 18:54:00,77.7,65.4,29.88,NNW,334,3.0,7.0,66,0.00,,---,0.00,163.00,VWS V14.00,2013-06-02 23:54:00,
2013-06-02 18:59:00,77.4,65.2,29.88,NW,319,0.0,4.0,66,0.00,,---,0.00,146.00,VWS V14.00,2013-06-02 23:59:00,
2013-06-02 19:00:00,77.6,65.3,29.88,WNW,284,0.0,7.0,66,0.00,,---,0.00,169.00,VWS V14.00,2013-06-03 00:00:00,
2013-06-02 19:04:00,77.2,65.4,29.88,NW,323,0.0,4.0,67,0.00,,---,0.00,130.00,VWS V14.00,2013-06-03 00:04:00,
2013-06-02 19:09:00,77.1,65.3,29.89,NNW,331,0.0,4.0,67,0.00,,---,0.00,139.00,VWS V14.00,2013-06-03 00:09:00,
2013-06-02 19:14:00,77.0,65.2,29.89,NNW,343,0.0,4.0,67,0.00,,---,0.00,104.00,VWS V14.00,2013-06-03 00:14:00,
2013-06-02 19:19:00,76.6,65.3,29.89,NNE,29,0.0,4.0,68,0.00,,---,0.00,72.00,VWS V14.00,2013-06-03 00:19:00,
2013-06-02 19:24:00,76.4,65.1,29.89,North,360,0.0,4.0,68,0.00,,---,0.00,58.00,VWS V14.00,2013-06-03 00:24:00,
2013-06-02 19:29:00,76.0,65.1,29.89,North,9,0.0,0.0,69,0.00,,---,0.00,51.00,VWS V14.00,2013-06-03 00:29:00,
2013-06-02 19:30:00,76.1,64.8,29.89,North,9,0.0,4.0,68,0.00,,---,0.00,56.00,VWS V14.00,2013-06-03 00:30:00,
2013-06-02 19:34:00,75.7,64.8,29.89,North,360,0.0,1.0,69,0.00,,---,0.00,46.00,VWS V14.00,2013-06-03 00:34:00,
2013-06-02 19:39:00,75.5,65.4,29.89,North,360,0.0,1.0,71,0.00,,---,0.00,40.00,VWS V14.00,2013-06-03 00:39:00,
2013-06-02 19:44:00,75.2,64.8,29.89,North,360,0.0,1.0,70,0.00,,---,0.00,32.00,VWS V14.00,2013-06-03 00:44:00,
2013-06-02 19:49:00,75.0,64.6,29.89,North,360,0.0,1.0,70,0.00,,---,0.00,25.00,VWS V14.00,2013-06-03 00:49:00,
2013-06-02 19:54:00,74.7,64.7,29.90,North,355,0.0,1.0,71,0.00,,---,0.00,21.00,VWS V14.00,2013-06-03 00:54:00,
2013-06-02 19:59:00,74.5,64.9,29.90,North,355,0.0,0.0,72,0.00,,---,0.00,14.00,VWS V14.00,2013-06-03 00:59:00,
2013-06-02 20:00:00,74.6,65.0,29.90,North,355,0.0,1.0,72,0.00,,---,0.00,16.00,VWS V14.00,2013-06-03 01:00:00,
2013-06-02 20:04:00,74.2,64.6,29.90,NNW,345,0.0,3.0,72,0.00,,---,0.00,9.00,VWS V14.00,2013-06-03 01:04:00,
2013-06-02 20:09:00,73.9,64.7,29.90,NW,325,2.0,3.0,73,0.00,,---,0.00,5.00,VWS V14.00,2013-06-03 01:09:00,
2013-06-02 20:14:00,73.5,64.3,29.90,NNW,346,0.0,3.0,73,0.00,,---,0.00,0.00,VWS V14.00,2013-06-03 01:14:00,
2013-06-02 20:19:00,73.2,64.4,29.90,NW,306,0.0,3.0,74,0.00,,---,0.00,0.00,VWS V14.00,2013-06-03 01:19:00,
2013-06-02 20:24:00,72.9,64.1,29.90,NW,306,0.0,3.0,74,0.00,,---,0.00,0.00,VWS V14.00,2013-06-03 01:24:00,
2013-06-02 20:29:00,72.6,64.2,29.90,NW,314,0.0,0.0,75,0.00,,---,0.00,0.00,VWS V14.00,2013-06-03 01:29:00,
2013-06-02 20:30:00,72.8,64.4,29.89,NW,313,0.0,3.0,75,0.00,,---,0.00,0.00,VWS V14.00,2013-06-03 01:30:00,
2013-06-02 20:34:00,72.4,64.0,29.90,NE,43,0.0,2.0,75,0.00,,---,0.00,0.00,VWS V14.00,2013-06-03 01:34:00,
2013-06-02 20:39:00,72.1,64.1,29.90,North,355,0.0,2.0,76,0.00,,---,0.00,0.00,VWS V14.00,2013-06-03 01:39:00,
2013-06-02 20:44:00,71.8,64.2,29.90,NNE,28,0.0,2.0,77,0.00,,---,0.00,0.00,VWS V14.00,2013-06-03 01:44:00,
2013-06-02 20:49:00,71.6,64.0,29.90,NNE,17,0.0,2.0,77,0.00,,---,0.00,0.00,VWS V14.00,2013-06-03 01:49:00,
2013-06-02 20:54:00,71.3,64.1,29.90,North,360,0.0,2.0,78,0.00,,---,0.00,0.00,VWS V14.00,2013-06-03 01:54:00,
2013-06-02 20:59:00,71.1,63.9,29.91,NNW,329,0.0,0.0,78,0.00,,---,0.00,0.00,VWS V14.00,2013-06-03 01:59:00,
2013-06-02 21:00:00,71.2,64.0,29.90,NNW,328,0.0,2.0,78,0.00,,---,0.00,0.00,VWS V14.00,2013-06-03 02:00:00,
2013-06-02 21:04:00,70.9,64.1,29.91,North,5,0.0,2.0,79,0.00,,---,0.00,0.00,VWS V14.00,2013-06-03 02:04:00,
2013-06-02 21:09:00,70.8,64.0,29.91,North,9,0.0,2.0,79,0.00,,---,0.00,0.00,VWS V14.00,2013-06-03 02:09:00,
2013-06-02 21:14:00,70.6,63.8,29.91,North,10,0.0,2.0,79,0.00,,---,0.00,0.00,VWS V14.00,2013-06-03 02:14:00,
2013-06-02 21:19:00,70.4,63.9,29.91,NNE,13,0.0,2.0,80,0.00,,---,0.00,0.00,VWS V14.00,2013-06-03 02:19:00,
2013-06-02 21:24:00,70.2,63.8,29.91,North,9,0.0,2.0,80,0.00,,---,0.00,0.00,VWS V14.00,2013-06-03 02:24:00,
2013-06-02 21:29:00,70.0,63.5,29.91,North,9,0.0,0.0,80,0.00,,---,0.00,0.00,VWS V14.00,2013-06-03 02:29:00,
2013-06-02 21:30:00,70.1,63.7,29.92,North,9,0.0,2.0,80,0.00,,---,0.00,0.00,VWS V14.00,2013-06-03 02:30:00,
2013-06-02 21:34:00,69.8,63.4,29.92,NNE,18,0.0,2.0,80,0.00,,---,0.00,0.00,VWS V14.00,2013-06-03 02:34:00,
2013-06-02 21:39:00,69.7,63.6,29.92,NNE,21,0.0,2.0,81,0.00,,---,0.00,0.00,VWS V14.00,2013-06-03 02:39:00,
2013-06-02 21:44:00,69.6,63.5,29.92,NNE,22,0.0,2.0,81,0.00,,---,0.00,0.00,VWS V14.00,2013-06-03 02:44:00,
2013-06-02 21:49:00,69.4,63.3,29.92,NNE,21,0.0,2.0,81,0.00,,---,0.00,0.00,VWS V14.00,2013-06-03 02:49:00,
2013-06-02 21:54:00,69.2,63.1,29.93,NNE,21,0.0,2.0,81,0.00,,---,0.00,0.00,VWS V14.00,2013-06-03 02:54:00,
2013-06-02 21:59:00,69.1,63.0,29.92,NNE,21,0.0,0.0,81,0.00,,---,0.00,0.00,VWS V14.00,2013-06-03 02:59:00,
2013-06-02 22:00:00,69.2,63.1,29.92,NNE,21,0.0,2.0,81,0.00,,---,0.00,0.00,VWS V14.00,2013-06-03 03:00:00,
2013-06-02 22:04:00,69.0,63.3,29.93,NNE,19,0.0,0.0,82,0.00,,---,0.00,0.00,VWS V14.00,2013-06-03 03:04:00,
2013-06-02 22:09:00,68.8,63.1,29.93,NNE,19,0.0,0.0,82,0.00,,---,0.00,0.00,VWS V14.00,2013-06-03 03:09:00,
2013-06-02 22:14:00,68.7,63.0,29.92,NNE,19,0.0,0.0,82,0.00,,---,0.00,0.00,VWS V14.00,2013-06-03 03:14:00,
2013-06-02 22:19:00,68.6,62.9,29.93,NNE,19,0.0,0.0,82,0.00,,---,0.00,0.00,VWS V14.00,2013-06-03 03:19:00,
2013-06-02 22:24:00,68.4,63.0,29.93,NNE,19,0.0,0.0,83,0.00,,---,0.00,0.00,VWS V14.00,2013-06-03 03:24:00,
2013-06-02 22:29:00,68.3,62.9,29.93,NNE,19,0.0,0.0,83,0.00,,---,0.00,0.00,VWS V14.00,2013-06-03 03:29:00,
2013-06-02 22:30:00,68.3,62.9,29.93,NNE,19,0.0,0.0,83,0.00,,---,0.00,0.00,VWS V14.00,2013-06-03 03:30:00,
2013-06-02 22:34:00,68.1,62.8,29.93,NNE,19,0.0,0.0,83,0.00,,---,0.00,0.00,VWS V14.00,2013-06-03 03:34:00,
2013-06-02 22:39:00,68.0,62.7,29.93,NNE,19,0.0,0.0,83,0.00,,---,0.00,0.00,VWS V14.00,2013-06-03 03:39:00,
2013-06-02 22:44:00,67.9,62.5,29.93,NNE,19,0.0,0.0,83,0.00,,---,0.00,0.00,VWS V14.00,2013-06-03 03:44:00,
2013-06-02 22:49:00,67.7,62.7,29.93,NNE,19,0.0,0.0,84,0.00,,---,0.00,0.00,VWS V14.00,2013-06-03 03:49:00,
2013-06-02 22:54:00,67.6,62.6,29.93,NNE,19,0.0,0.0,84,0.00,,---,0.00,0.00,VWS V14.00,2013-06-03 03:54:00,
2013-06-02 22:59:00,67.5,62.5,29.93,NNE,19,0.0,0.0,84,0.00,,---,0.00,0.00,VWS V14.00,2013-06-03 03:59:00,
2013-06-02 23:00:00,67.6,62.6,29.93,NNE,19,0.0,0.0,84,0.00,,---,0.00,0.00,VWS V14.00,2013-06-03 04:00:00,
2013-06-02 23:01:00,67.4,62.4,29.93,NNE,19,0.0,0.0,84,0.00,,---,0.00,0.00,VWS V14.00,2013-06-03 04:01:00,
2013-06-02 23:06:00,67.2,62.5,29.93,NNE,19,0.0,0.0,85,0.00,,---,0.00,0.00,VWS V14.00,2013-06-03 04:06:00,
2013-06-02 23:11:00,67.1,62.5,29.92,NNW,338,0.0,0.0,85,0.00,,---,0.00,0.00,VWS V14.00,2013-06-03 04:11:00,
2013-06-02 23:16:00,67.0,62.3,29.92,NNW,340,0.0,1.0,85,0.00,,---,0.00,0.00,VWS V14.00,2013-06-03 04:16:00,
2013-06-02 23:21:00,67.0,62.0,29.92,NNW,341,0.0,1.0,84,0.00,,---,0.00,0.00,VWS V14.00,2013-06-03 04:21:00,
2013-06-02 23:27:00,66.9,61.9,29.92,NNW,341,0.0,0.0,84,0.00,,---,0.00,0.00,VWS V14.00,2013-06-03 04:27:00,
2013-06-02 23:30:00,66.9,61.9,29.92,NNW,341,0.0,1.0,84,0.00,,---,0.00,0.00,VWS V14.00,2013-06-03 04:30:00,
2013-06-02 23:32:00,66.8,61.8,29.92,NNW,341,0.0,0.0,84,0.00,,---,0.00,0.00,VWS V14.00,2013-06-03 04:32:00,
2013-06-02 23:37:00,66.8,61.8,29.92,NNW,341,0.0,0.0,84,0.00,,---,0.00,0.00,VWS V14.00,2013-06-03 04:37:00,
2013-06-02 23:42:00,66.7,61.7,29.92,NNW,341,0.0,0.0,84,0.00,,---,0.00,0.00,VWS V14.00,2013-06-03 04:42:00,
2013-06-02 23:46:00,66.7,61.7,29.92,NNW,341,0.0,0.0,84,0.00,,---,0.00,0.00,VWS V14.00,2013-06-03 04:46:00,
2013-06-02 23:51:00,66.6,61.6,29.92,NNW,341,0.0,0.0,84,0.00,,---,0.00,0.00,VWS V14.00,2013-06-03 04:51:00,
2013-06-02 23:56:00,66.5,61.5,29.92,NNW,341,0.0,0.0,84,0.00,,---,0.00,0.00,VWS V14.00,2013-06-03 04:56:00,